OV1-9 R/B, 2622

Orbit data source: Space-Track

OV1-9 R/B, 2622 is space debris in LEO originally from a launch on Sun, 11 Dec 1966 UTC launched from the Air Force Western Test Range (AFWTR). Debris objects in space refer to the collection of defunct objects orbiting the Earth. Examples of debris include non-operational satellites, rocket bodies, and fragments generated from explosions, collisions, or faulty payload assembly.

Loading next visibility...
Identifier
2622, 1966-111D
Orbit
LEO
Country
Flag of USUS
Related business
Manufacturer
ABL
Mission
Spacecraft
Bus & Motor
ALTAIR, Unknown motor
Mass
125 kg wet, 125 kg dry
Launch date (UTC)
1966-12-11 (60 years ago)
Launch vehicle
Unknown
Launch site
Air Force Western Test Range (AFWTR)
Object type
Payload
Rocket body
Debris
Shape & HBR
CYL, 1.1 m
Radar Cross Section
Large (>1 m²)

Expand to show TLE details & history
Last TLE update: 13 hours ago

TLE from 13 hours ago
0 OV1-9 R/B
1 02622U 66111D   26206.54264780  .00000892  00000-0  35339-3 0  9994
2 02622  99.1115 111.1093 2221834   0.5838 359.7093 10.50006378248923
Epoch: 2026-07-25T13:01Z
TLE epoch observation values (Epoch: 2026-07-25T13:01:24.769Z)
Latitude
-0.00012°
Longitude
-27.49731°
Altitude
476.155 km
Speed
8.432 km/s
True Right ascension
07h 24m 26s
True Declination
0° 00' 00"
Sunlit
Object was in daylight at epoch
Visualization orbit readout
Latitude
Unknown
Longitude
Unknown
Altitude
Unknown
Speed
Unknown
Apparent Right ascension
Unknown
Apparent Declination
Unknown
Sunlit
N/A
Visualization observer readout
Local Sidereal Time
15:21:43
Azimuth
Unknown
Elevation
Unknown
Doppler factor
Unknown
Orbital elements
Apogee altitude
4,385.381 km
Perigee altitude
471.934 km
Semi-major axis
8,806.795 km
Eccentricity
0.22218
Inclination
99.1115°
RAAN
111.1093°
Arg. of periapsis
0.5838°
True anomaly
359.53152°
Mean anomaly
359.7093°
Eccentric anomaly
359.62626°
Mean motion
2.62613 °/min
Orbital period
137.08 mins
BSTAR
0.00035339
Loading maneuver chart data...
Computing Atmospheric mass density...
Loading historical data...
Loading historical data...
Loading historical data...
Loading historical data...
Loading historical data...
Loading historical data...
Loading historical data...
Other satellites on launch #111 in the year 1966 (1966-12-11 UTC)

Documentation

Showing up to 5 results
|